Year,Month,Day,Hour,Minute,Value (Times are PST for temperature in C)
2010,02,04,00,00,6.60
2010,02,04,00,01,6.60
2010,02,04,00,02,6.60
2010,02,04,00,03,6.60
2010,02,04,00,04,6.60
2010,02,04,00,05,6.60
2010,02,04,00,06,6.60
2010,02,04,00,07,6.60
2010,02,04,00,08,6.60
2010,02,04,00,09,6.60
2010,02,04,00,10,6.60
2010,02,04,00,11,6.60
2010,02,04,00,12,6.60
2010,02,04,00,13,6.60
2010,02,04,00,14,6.60
2010,02,04,00,15,6.60
2010,02,04,00,16,6.60
2010,02,04,00,17,6.60
2010,02,04,00,18,6.60
2010,02,04,00,19,6.60
2010,02,04,00,20,6.60
2010,02,04,00,21,6.60
2010,02,04,00,22,6.60
2010,02,04,00,23,6.60
2010,02,04,00,24,6.60
2010,02,04,00,25,6.60
2010,02,04,00,26,6.60
2010,02,04,00,27,6.60
2010,02,04,00,28,6.60
2010,02,04,00,29,6.60
2010,02,04,00,30,6.60
2010,02,04,00,31,6.60
2010,02,04,00,32,6.60
2010,02,04,00,33,6.60
2010,02,04,00,34,6.60
2010,02,04,00,35,6.60
2010,02,04,00,36,6.60
2010,02,04,00,37,6.60
2010,02,04,00,38,6.60
2010,02,04,00,39,6.60
2010,02,04,00,40,6.60
2010,02,04,00,41,6.60
2010,02,04,00,42,6.60
2010,02,04,00,43,6.60
2010,02,04,00,44,6.60
2010,02,04,00,45,6.60
2010,02,04,00,46,6.60
2010,02,04,00,47,6.60
2010,02,04,00,48,6.60
2010,02,04,00,49,6.60
2010,02,04,00,50,6.50
2010,02,04,00,51,6.40
2010,02,04,00,52,6.50
2010,02,04,00,53,6.50
2010,02,04,00,54,6.50
2010,02,04,00,55,6.50
2010,02,04,00,56,6.60
2010,02,04,00,57,6.60
2010,02,04,00,58,6.60
2010,02,04,00,59,6.50
2010,02,04,01,00,6.40
2010,02,04,01,01,6.50
2010,02,04,01,02,6.60
2010,02,04,01,03,6.60
2010,02,04,01,04,6.60
2010,02,04,01,05,6.60
2010,02,04,01,06,6.60
2010,02,04,01,07,6.60
2010,02,04,01,08,6.60
2010,02,04,01,09,6.60
2010,02,04,01,10,6.60
2010,02,04,01,11,6.60
2010,02,04,01,12,6.60
2010,02,04,01,13,6.60
2010,02,04,01,14,6.60
2010,02,04,01,15,6.60
2010,02,04,01,16,6.60
2010,02,04,01,17,6.60
2010,02,04,01,18,6.60
2010,02,04,01,19,6.60
2010,02,04,01,20,6.60
2010,02,04,01,21,6.60
2010,02,04,01,22,6.60
2010,02,04,01,23,6.60
2010,02,04,01,24,6.60
2010,02,04,01,25,6.60
2010,02,04,01,26,6.60
2010,02,04,01,27,6.60
2010,02,04,01,28,6.60
2010,02,04,01,29,6.60
2010,02,04,01,30,6.60
2010,02,04,01,31,6.60
2010,02,04,01,32,6.60
2010,02,04,01,33,6.60
2010,02,04,01,34,6.60
2010,02,04,01,35,6.60
2010,02,04,01,36,6.60
2010,02,04,01,37,6.60
2010,02,04,01,38,6.60
2010,02,04,01,39,6.60
2010,02,04,01,40,6.60
2010,02,04,01,41,6.60
2010,02,04,01,42,6.60
2010,02,04,01,43,6.60
2010,02,04,01,44,6.60
2010,02,04,01,45,6.60
2010,02,04,01,46,6.60
2010,02,04,01,47,6.60
2010,02,04,01,48,6.60
2010,02,04,01,49,6.60
2010,02,04,01,50,6.60
2010,02,04,01,51,6.60
2010,02,04,01,52,6.60
2010,02,04,01,53,6.60
2010,02,04,01,54,6.60
2010,02,04,01,55,6.60
2010,02,04,01,56,6.60
2010,02,04,01,57,6.60
2010,02,04,01,58,6.60
2010,02,04,01,59,6.60
2010,02,04,02,00,6.60
2010,02,04,02,01,6.60
2010,02,04,02,02,6.60
2010,02,04,02,03,6.60
2010,02,04,02,04,6.60
2010,02,04,02,05,6.60
2010,02,04,02,06,6.60
2010,02,04,02,07,6.60
2010,02,04,02,08,6.60
2010,02,04,02,09,6.60
2010,02,04,02,10,6.60
2010,02,04,02,11,6.60
2010,02,04,02,12,6.60
2010,02,04,02,13,6.60
2010,02,04,02,14,6.60
2010,02,04,02,15,6.60
2010,02,04,02,16,6.60
2010,02,04,02,17,6.60
2010,02,04,02,18,6.60
2010,02,04,02,19,6.60
2010,02,04,02,20,6.60
2010,02,04,02,21,6.60
2010,02,04,02,22,6.60
2010,02,04,02,23,6.60
2010,02,04,02,24,6.60
2010,02,04,02,25,6.60
2010,02,04,02,26,6.60
2010,02,04,02,27,6.60
2010,02,04,02,28,6.60
2010,02,04,02,29,6.60
2010,02,04,02,30,6.60
2010,02,04,02,31,6.60
2010,02,04,02,32,6.60
2010,02,04,02,33,6.60
2010,02,04,02,34,6.60
2010,02,04,02,35,6.60
2010,02,04,02,36,6.60
2010,02,04,02,37,6.60
2010,02,04,02,38,6.60
2010,02,04,02,39,6.60
2010,02,04,02,40,6.60
2010,02,04,02,41,6.60
2010,02,04,02,42,6.60
2010,02,04,02,43,6.60
2010,02,04,02,44,6.60
2010,02,04,02,45,6.60
2010,02,04,02,46,6.60
2010,02,04,02,47,6.60
2010,02,04,02,48,6.60
2010,02,04,02,49,6.60
2010,02,04,02,50,6.60
2010,02,04,02,51,6.60
2010,02,04,02,52,6.60
2010,02,04,02,53,6.60
2010,02,04,02,54,6.60
2010,02,04,02,55,6.60
2010,02,04,02,56,6.60
2010,02,04,02,57,6.60
2010,02,04,02,58,6.60
2010,02,04,02,59,6.60
2010,02,04,03,00,6.60
2010,02,04,03,01,6.60
2010,02,04,03,02,6.60
2010,02,04,03,03,6.60
2010,02,04,03,04,6.60
2010,02,04,03,05,6.60
2010,02,04,03,06,6.60
2010,02,04,03,07,6.60
2010,02,04,03,08,6.60
2010,02,04,03,09,6.60
2010,02,04,03,10,6.60
2010,02,04,03,11,6.60
2010,02,04,03,12,6.60
2010,02,04,03,13,6.60
2010,02,04,03,14,6.60
2010,02,04,03,15,6.60
2010,02,04,03,16,6.60
2010,02,04,03,17,6.60
2010,02,04,03,18,6.60
2010,02,04,03,19,6.50
2010,02,04,03,20,6.40
2010,02,04,03,21,6.40
2010,02,04,03,22,6.40
2010,02,04,03,23,6.40
2010,02,04,03,24,6.40
2010,02,04,03,25,6.40
2010,02,04,03,26,6.40
2010,02,04,03,27,6.40
2010,02,04,03,28,6.40
2010,02,04,03,29,6.40
2010,02,04,03,30,6.40
2010,02,04,03,31,6.40
2010,02,04,03,32,6.40
2010,02,04,03,33,6.40
2010,02,04,03,34,6.40
2010,02,04,03,35,6.40
2010,02,04,03,36,6.40
2010,02,04,03,37,6.40
2010,02,04,03,38,6.40
2010,02,04,03,39,6.40
2010,02,04,03,40,6.40
2010,02,04,03,41,6.40
2010,02,04,03,42,6.40
2010,02,04,03,43,6.40
2010,02,04,03,44,6.40
2010,02,04,03,45,6.40
2010,02,04,03,46,6.40
2010,02,04,03,47,6.40
2010,02,04,03,48,6.40
2010,02,04,03,49,6.40
2010,02,04,03,50,6.40
2010,02,04,03,51,6.40
2010,02,04,03,52,6.40
2010,02,04,03,53,6.40
2010,02,04,03,54,6.40
2010,02,04,03,55,6.40
2010,02,04,03,56,6.40
2010,02,04,03,57,6.40
2010,02,04,03,58,6.40
2010,02,04,03,59,6.40
2010,02,04,04,00,6.40
2010,02,04,04,01,6.40
2010,02,04,04,02,6.40
2010,02,04,04,03,6.40
2010,02,04,04,04,6.40
2010,02,04,04,05,6.40
2010,02,04,04,06,6.40
2010,02,04,04,07,6.40
2010,02,04,04,08,6.40
2010,02,04,04,09,6.40
2010,02,04,04,10,6.40
2010,02,04,04,11,6.40
2010,02,04,04,12,6.40
2010,02,04,04,13,6.40
2010,02,04,04,14,6.40
2010,02,04,04,15,6.40
2010,02,04,04,16,6.40
2010,02,04,04,17,6.40
2010,02,04,04,18,6.40
2010,02,04,04,19,6.40
2010,02,04,04,20,6.40
2010,02,04,04,21,6.40
2010,02,04,04,22,6.40
2010,02,04,04,23,6.40
2010,02,04,04,24,6.40
2010,02,04,04,25,6.40
2010,02,04,04,26,6.40
2010,02,04,04,27,6.40
2010,02,04,04,28,6.40
2010,02,04,04,29,6.40
2010,02,04,04,30,6.40
2010,02,04,04,31,6.40
2010,02,04,04,32,6.40
2010,02,04,04,33,6.40
2010,02,04,04,34,6.40
2010,02,04,04,35,6.40
2010,02,04,04,36,6.40
2010,02,04,04,37,6.40
2010,02,04,04,38,6.40
2010,02,04,04,39,6.40
2010,02,04,04,40,6.40
2010,02,04,04,41,6.40
2010,02,04,04,42,6.40
2010,02,04,04,43,6.40
2010,02,04,04,44,6.40
2010,02,04,04,45,6.40
2010,02,04,04,46,6.40
2010,02,04,04,47,6.40
2010,02,04,04,48,6.40
2010,02,04,04,49,6.40
2010,02,04,04,50,6.40
2010,02,04,04,51,6.40
2010,02,04,04,52,6.40
2010,02,04,04,53,6.40
2010,02,04,04,54,6.40
2010,02,04,04,55,6.40
2010,02,04,04,56,6.40
2010,02,04,04,57,6.40
2010,02,04,04,58,6.40
2010,02,04,04,59,6.40
2010,02,04,05,00,6.40
2010,02,04,05,01,6.40
2010,02,04,05,02,6.40
2010,02,04,05,03,6.40
2010,02,04,05,04,6.40
2010,02,04,05,05,6.40
2010,02,04,05,06,6.40
2010,02,04,05,07,6.40
2010,02,04,05,08,6.40
2010,02,04,05,09,6.40
2010,02,04,05,10,6.40
2010,02,04,05,11,6.40
2010,02,04,05,12,6.40
2010,02,04,05,13,6.40
2010,02,04,05,14,6.40
2010,02,04,05,15,6.40
2010,02,04,05,16,6.40
2010,02,04,05,17,6.40
2010,02,04,05,18,6.40
2010,02,04,05,19,6.40
2010,02,04,05,20,6.40
2010,02,04,05,21,6.40
2010,02,04,05,22,6.40
2010,02,04,05,23,6.40
2010,02,04,05,24,6.40
2010,02,04,05,25,6.40
2010,02,04,05,26,6.40
2010,02,04,05,27,6.40
2010,02,04,05,28,6.40
2010,02,04,05,29,6.40
2010,02,04,05,30,6.40
2010,02,04,05,31,6.40
2010,02,04,05,32,6.40
2010,02,04,05,33,6.40
2010,02,04,05,34,6.40
2010,02,04,05,35,6.40
2010,02,04,05,36,6.40
2010,02,04,05,37,6.40
2010,02,04,05,38,6.40
2010,02,04,05,39,6.40
2010,02,04,05,40,6.40
2010,02,04,05,41,6.40
2010,02,04,05,42,6.50
2010,02,04,05,43,6.60
2010,02,04,05,44,6.60
2010,02,04,05,45,6.60
2010,02,04,05,46,6.60
2010,02,04,05,47,6.60
2010,02,04,05,48,6.60
2010,02,04,05,49,6.60
2010,02,04,05,50,6.60
2010,02,04,05,51,6.60
2010,02,04,05,52,6.60
2010,02,04,05,53,6.60
2010,02,04,05,54,6.50
2010,02,04,05,55,6.40
2010,02,04,05,56,6.40
2010,02,04,05,57,6.40
2010,02,04,05,58,6.40
2010,02,04,05,59,6.40
2010,02,04,06,00,6.40
2010,02,04,06,01,6.40
2010,02,04,06,02,6.40
2010,02,04,06,03,6.40
2010,02,04,06,04,6.40
2010,02,04,06,05,6.40
2010,02,04,06,06,6.40
2010,02,04,06,07,6.40
2010,02,04,06,08,6.30
2010,02,04,06,09,6.30
2010,02,04,06,10,6.30
2010,02,04,06,11,6.30
2010,02,04,06,12,6.30
2010,02,04,06,13,6.30
2010,02,04,06,14,6.30
2010,02,04,06,15,6.30
2010,02,04,06,16,6.30
2010,02,04,06,17,6.30
2010,02,04,06,18,6.30
2010,02,04,06,19,6.30
2010,02,04,06,20,6.30
2010,02,04,06,21,6.30
2010,02,04,06,22,6.30
2010,02,04,06,23,6.30
2010,02,04,06,24,6.30
2010,02,04,06,25,6.30
2010,02,04,06,26,6.30
2010,02,04,06,27,6.30
2010,02,04,06,28,6.30
2010,02,04,06,29,6.30
2010,02,04,06,30,6.30
2010,02,04,06,31,6.30
2010,02,04,06,32,6.30
2010,02,04,06,33,6.30
2010,02,04,06,34,6.30
2010,02,04,06,35,6.30
2010,02,04,06,36,6.30
2010,02,04,06,37,6.30
2010,02,04,06,38,6.30
2010,02,04,06,39,6.30
2010,02,04,06,40,6.30
2010,02,04,06,41,6.30
2010,02,04,06,42,6.30
2010,02,04,06,43,6.40
2010,02,04,06,44,6.40
2010,02,04,06,45,6.40
2010,02,04,06,46,6.40
2010,02,04,06,47,6.40
2010,02,04,06,48,6.40
2010,02,04,06,49,6.40
2010,02,04,06,50,6.40
2010,02,04,06,51,6.40
2010,02,04,06,52,6.40
2010,02,04,06,53,6.40
2010,02,04,06,54,6.40
2010,02,04,06,55,6.40
2010,02,04,06,56,6.40
2010,02,04,06,57,6.40
2010,02,04,06,58,6.40
2010,02,04,06,59,6.40
2010,02,04,07,00,6.40
2010,02,04,07,01,6.40
2010,02,04,07,02,6.50
2010,02,04,07,03,6.60
2010,02,04,07,04,6.60
2010,02,04,07,05,6.60
2010,02,04,07,06,6.60
2010,02,04,07,07,6.60
2010,02,04,07,08,6.60
2010,02,04,07,09,6.60
2010,02,04,07,10,6.60
2010,02,04,07,11,6.60
2010,02,04,07,12,6.60
2010,02,04,07,13,6.60
2010,02,04,07,14,6.60
2010,02,04,07,15,6.60
2010,02,04,07,16,6.60
2010,02,04,07,17,6.60
2010,02,04,07,18,6.60
2010,02,04,07,19,6.60
2010,02,04,07,20,6.60
2010,02,04,07,21,6.60
2010,02,04,07,22,6.60
2010,02,04,07,23,6.60
2010,02,04,07,24,6.60
2010,02,04,07,25,6.60
2010,02,04,07,26,6.60
2010,02,04,07,27,6.60
2010,02,04,07,28,6.60
2010,02,04,07,29,6.60
2010,02,04,07,30,6.60
2010,02,04,07,31,6.60
2010,02,04,07,32,6.60
2010,02,04,07,33,6.60
2010,02,04,07,34,6.60
2010,02,04,07,35,6.60
2010,02,04,07,36,6.60
2010,02,04,07,37,6.60
2010,02,04,07,38,6.60
2010,02,04,07,39,6.60
2010,02,04,07,40,6.60
2010,02,04,07,41,6.60
2010,02,04,07,42,6.60
2010,02,04,07,43,6.60
2010,02,04,07,44,6.60
2010,02,04,07,45,6.60
2010,02,04,07,46,6.60
2010,02,04,07,47,6.60
2010,02,04,07,48,6.60
2010,02,04,07,49,6.60
2010,02,04,07,50,6.60
2010,02,04,07,51,6.60
2010,02,04,07,52,6.60
2010,02,04,07,53,6.60
2010,02,04,07,54,6.60
2010,02,04,07,55,6.60
2010,02,04,07,56,6.60
2010,02,04,07,57,6.60
2010,02,04,07,58,6.60
2010,02,04,07,59,6.60
2010,02,04,08,00,6.60
2010,02,04,08,01,6.60
2010,02,04,08,02,6.60
2010,02,04,08,03,6.60
2010,02,04,08,04,6.60
2010,02,04,08,05,6.60
2010,02,04,08,06,6.60
2010,02,04,08,07,6.60
2010,02,04,08,08,6.60
2010,02,04,08,09,6.60
2010,02,04,08,10,6.60
2010,02,04,08,11,6.60
2010,02,04,08,12,6.60
2010,02,04,08,13,6.60
2010,02,04,08,14,6.60
2010,02,04,08,15,6.60
2010,02,04,08,16,6.60
2010,02,04,08,17,6.60
2010,02,04,08,18,6.60
2010,02,04,08,19,6.60
2010,02,04,08,20,6.60
2010,02,04,08,21,6.60
2010,02,04,08,22,6.60
2010,02,04,08,23,6.60
2010,02,04,08,24,6.60
2010,02,04,08,25,6.60
2010,02,04,08,26,6.60
2010,02,04,08,27,6.60
2010,02,04,08,28,6.60
2010,02,04,08,29,6.60
2010,02,04,08,30,6.60
2010,02,04,08,31,6.60
2010,02,04,08,32,6.60
2010,02,04,08,33,6.60
2010,02,04,08,34,6.70
2010,02,04,08,35,6.70
2010,02,04,08,36,6.70
2010,02,04,08,37,6.70
2010,02,04,08,38,6.70
2010,02,04,08,39,6.70
2010,02,04,08,40,6.80
2010,02,04,08,41,6.80
2010,02,04,08,42,6.80
2010,02,04,08,43,6.80
2010,02,04,08,44,6.80
2010,02,04,08,45,6.80
2010,02,04,08,46,6.80
2010,02,04,08,47,6.90
2010,02,04,08,48,6.90
2010,02,04,08,49,6.90
2010,02,04,08,50,6.90
2010,02,04,08,51,6.90
2010,02,04,08,52,6.90
2010,02,04,08,53,6.90
2010,02,04,08,54,6.90
2010,02,04,08,55,6.90
2010,02,04,08,56,6.90
2010,02,04,08,57,7.00
2010,02,04,08,58,7.00
2010,02,04,08,59,7.00
2010,02,04,09,00,7.00
2010,02,04,09,01,7.00
2010,02,04,09,02,7.00
2010,02,04,09,03,7.00
2010,02,04,09,04,7.00
2010,02,04,09,05,7.00
2010,02,04,09,06,7.00
2010,02,04,09,07,7.00
2010,02,04,09,08,7.00
2010,02,04,09,09,7.00
2010,02,04,09,10,7.00
2010,02,04,09,11,7.00
2010,02,04,09,12,7.00
2010,02,04,09,13,7.00
2010,02,04,09,14,7.00
2010,02,04,09,15,7.00
2010,02,04,09,16,7.10
2010,02,04,09,17,7.10
2010,02,04,09,18,7.10
2010,02,04,09,19,7.10
2010,02,04,09,20,7.10
2010,02,04,09,21,7.10
2010,02,04,09,22,7.10
2010,02,04,09,23,7.10
2010,02,04,09,24,7.10
2010,02,04,09,25,7.10
2010,02,04,09,26,7.20
2010,02,04,09,27,7.20
2010,02,04,09,28,7.20
2010,02,04,09,29,7.20
2010,02,04,09,30,7.20
2010,02,04,09,31,7.20
2010,02,04,09,32,7.20
2010,02,04,09,33,7.30
2010,02,04,09,34,7.30
2010,02,04,09,35,7.30
2010,02,04,09,36,7.30
2010,02,04,09,37,7.30
2010,02,04,09,38,7.30
2010,02,04,09,39,7.30
2010,02,04,09,40,7.30
2010,02,04,09,41,7.30
2010,02,04,09,42,7.30
2010,02,04,09,43,7.30
2010,02,04,09,44,7.30
2010,02,04,09,45,7.30
2010,02,04,09,46,7.30
2010,02,04,09,47,7.30
2010,02,04,09,48,7.30
2010,02,04,09,49,7.30
2010,02,04,09,50,7.30
2010,02,04,09,51,7.30
2010,02,04,09,52,7.40
2010,02,04,09,53,7.40
2010,02,04,09,54,7.40
2010,02,04,09,55,7.40
2010,02,04,09,56,7.40
2010,02,04,09,57,7.40
2010,02,04,09,58,7.40
2010,02,04,09,59,7.50
2010,02,04,10,00,7.50
2010,02,04,10,01,7.50
2010,02,04,10,02,7.50
2010,02,04,10,03,7.50
2010,02,04,10,04,7.50
2010,02,04,10,05,7.50
2010,02,04,10,06,7.60
2010,02,04,10,07,7.60
2010,02,04,10,08,7.60
2010,02,04,10,09,7.60
2010,02,04,10,10,7.60
2010,02,04,10,11,7.60
2010,02,04,10,12,7.60
2010,02,04,10,13,7.60
2010,02,04,10,14,7.60
2010,02,04,10,15,7.60
2010,02,04,10,16,7.60
2010,02,04,10,17,7.60
2010,02,04,10,18,7.70
2010,02,04,10,19,7.70
2010,02,04,10,20,7.70
2010,02,04,10,21,7.70
2010,02,04,10,22,7.70
2010,02,04,10,23,7.70
2010,02,04,10,24,7.70
2010,02,04,10,25,7.70
2010,02,04,10,26,7.80
2010,02,04,10,27,7.80
2010,02,04,10,28,7.80
2010,02,04,10,29,7.80
2010,02,04,10,30,7.80
2010,02,04,10,31,7.80
2010,02,04,10,32,7.80
2010,02,04,10,33,7.80
2010,02,04,10,34,7.80
2010,02,04,10,35,7.80
2010,02,04,10,36,7.90
2010,02,04,10,37,7.90
2010,02,04,10,38,7.90
2010,02,04,10,39,7.90
2010,02,04,10,40,8.00
2010,02,04,10,41,8.00
2010,02,04,10,42,8.10
2010,02,04,10,43,8.10
2010,02,04,10,44,8.10
2010,02,04,10,45,8.20
2010,02,04,10,46,8.20
2010,02,04,10,47,8.20
2010,02,04,10,48,8.20
2010,02,04,10,49,8.30
2010,02,04,10,50,8.30
2010,02,04,10,51,8.30
2010,02,04,10,52,8.30
2010,02,04,10,53,8.40
2010,02,04,10,54,8.40
2010,02,04,10,55,8.50
2010,02,04,10,56,8.60
2010,02,04,10,57,8.60
2010,02,04,10,58,8.60
2010,02,04,10,59,8.70
2010,02,04,11,00,8.70
2010,02,04,11,01,8.70
2010,02,04,11,02,8.70
2010,02,04,11,03,8.80
2010,02,04,11,04,8.80
2010,02,04,11,05,8.80
2010,02,04,11,06,8.80
2010,02,04,11,07,8.90
2010,02,04,11,08,8.90
2010,02,04,11,09,8.90
2010,02,04,11,10,8.90
2010,02,04,11,11,9.00
2010,02,04,11,12,9.00
2010,02,04,11,13,9.00
2010,02,04,11,14,9.10
2010,02,04,11,15,9.10
2010,02,04,11,16,9.10
2010,02,04,11,17,9.10
2010,02,04,11,18,9.10
2010,02,04,11,19,9.10
2010,02,04,11,20,9.20
2010,02,04,11,21,9.20
2010,02,04,11,22,9.30
2010,02,04,11,23,9.40
2010,02,04,11,24,9.40
2010,02,04,11,25,9.50
2010,02,04,11,26,9.50
2010,02,04,11,27,9.50
2010,02,04,11,28,9.60
2010,02,04,11,29,9.60
2010,02,04,11,30,9.70
2010,02,04,11,31,9.80
2010,02,04,11,32,9.90
2010,02,04,11,33,9.90
2010,02,04,11,34,10.10
2010,02,04,11,35,10.20
2010,02,04,11,36,10.30
2010,02,04,11,37,10.40
2010,02,04,11,38,10.50
2010,02,04,11,39,10.60
2010,02,04,11,40,10.60
2010,02,04,11,41,10.60
2010,02,04,11,42,10.60
2010,02,04,11,43,10.60
2010,02,04,11,44,10.50
2010,02,04,11,45,10.40
2010,02,04,11,46,10.40
2010,02,04,11,47,10.40
2010,02,04,11,48,10.40
2010,02,04,11,49,10.40
2010,02,04,11,50,10.40
2010,02,04,11,51,10.40
2010,02,04,11,52,10.40
2010,02,04,11,53,10.30
2010,02,04,11,54,10.30
2010,02,04,11,55,10.30
2010,02,04,11,56,10.30
2010,02,04,11,57,10.30
2010,02,04,11,58,10.20
2010,02,04,11,59,10.20
2010,02,04,12,00,10.20
2010,02,04,12,01,10.20
2010,02,04,12,02,10.30
2010,02,04,12,03,10.30
2010,02,04,12,04,10.40
2010,02,04,12,05,10.40
2010,02,04,12,06,10.40
2010,02,04,12,07,10.40
2010,02,04,12,08,10.50
2010,02,04,12,09,10.60
2010,02,04,12,10,10.60
2010,02,04,12,11,10.50
2010,02,04,12,12,10.40
2010,02,04,12,13,10.40
2010,02,04,12,14,10.50
2010,02,04,12,15,10.60
2010,02,04,12,16,10.60
2010,02,04,12,17,10.60
2010,02,04,12,18,10.60
2010,02,04,12,19,10.50
2010,02,04,12,20,10.40
2010,02,04,12,21,10.40
2010,02,04,12,22,10.40
2010,02,04,12,23,10.40
2010,02,04,12,24,10.30
2010,02,04,12,25,10.30
2010,02,04,12,26,10.30
2010,02,04,12,27,10.30
2010,02,04,12,28,10.20
2010,02,04,12,29,10.20
2010,02,04,12,30,10.20
2010,02,04,12,31,10.10
2010,02,04,12,32,10.10
2010,02,04,12,33,10.20
2010,02,04,12,34,10.10
2010,02,04,12,35,10.10
2010,02,04,12,36,10.10
2010,02,04,12,37,10.10
2010,02,04,12,38,10.10
2010,02,04,12,39,10.10
2010,02,04,12,40,10.10
2010,02,04,12,41,10.10
2010,02,04,12,42,10.10
2010,02,04,12,43,10.10
2010,02,04,12,44,10.10
2010,02,04,12,45,10.10
2010,02,04,12,46,10.10
2010,02,04,12,47,10.10
2010,02,04,12,48,10.10
2010,02,04,12,49,10.10
2010,02,04,12,50,10.10
2010,02,04,12,51,10.10
2010,02,04,12,52,10.10
2010,02,04,12,53,10.10
2010,02,04,12,54,10.10
2010,02,04,12,55,10.10
2010,02,04,12,56,10.10
2010,02,04,12,57,10.10
2010,02,04,12,58,10.10
2010,02,04,12,59,10.10
2010,02,04,13,00,10.10
2010,02,04,13,01,10.20
2010,02,04,13,02,10.20
2010,02,04,13,03,10.20
2010,02,04,13,04,10.10
2010,02,04,13,05,10.10
2010,02,04,13,06,10.00
2010,02,04,13,07,9.90
2010,02,04,13,08,9.90
2010,02,04,13,09,9.90
2010,02,04,13,10,9.90
2010,02,04,13,11,9.90
2010,02,04,13,12,9.90
2010,02,04,13,13,9.90
2010,02,04,13,14,9.90
2010,02,04,13,15,9.90
2010,02,04,13,16,9.90
2010,02,04,13,17,9.90
2010,02,04,13,18,9.90
2010,02,04,13,19,9.90
2010,02,04,13,20,9.90
2010,02,04,13,21,9.90
2010,02,04,13,22,9.90
2010,02,04,13,23,9.90
2010,02,04,13,24,9.90
2010,02,04,13,25,9.90
2010,02,04,13,26,9.90
2010,02,04,13,27,9.90
2010,02,04,13,28,9.90
2010,02,04,13,29,9.90
2010,02,04,13,30,9.90
2010,02,04,13,31,10.00
2010,02,04,13,32,10.10
2010,02,04,13,33,10.10
2010,02,04,13,34,10.10
2010,02,04,13,35,10.10
2010,02,04,13,36,10.20
2010,02,04,13,37,10.20
2010,02,04,13,38,10.30
2010,02,04,13,39,10.30
2010,02,04,13,40,10.30
2010,02,04,13,41,10.20
2010,02,04,13,42,10.30
2010,02,04,13,43,10.30
2010,02,04,13,44,10.40
2010,02,04,13,45,10.40
2010,02,04,13,46,10.40
2010,02,04,13,47,10.40
2010,02,04,13,48,10.40
2010,02,04,13,49,10.40
2010,02,04,13,50,10.60
2010,02,04,13,51,10.60
2010,02,04,13,52,10.60
2010,02,04,13,53,10.60
2010,02,04,13,54,10.60
2010,02,04,13,55,10.60
2010,02,04,13,56,10.60
2010,02,04,13,57,10.60
2010,02,04,13,58,10.60
2010,02,04,13,59,10.70
2010,02,04,14,00,10.70
2010,02,04,14,01,10.80
2010,02,04,14,02,10.80
2010,02,04,14,03,10.90
2010,02,04,14,04,10.90
2010,02,04,14,05,10.90
2010,02,04,14,06,10.90
2010,02,04,14,07,10.90
2010,02,04,14,08,10.90
2010,02,04,14,09,11.00
2010,02,04,14,10,11.10
2010,02,04,14,11,11.10
2010,02,04,14,12,11.10
2010,02,04,14,13,11.10
2010,02,04,14,14,11.10
2010,02,04,14,15,11.20
2010,02,04,14,16,11.20
2010,02,04,14,17,11.20
2010,02,04,14,18,11.20
2010,02,04,14,19,11.30
2010,02,04,14,20,11.20
2010,02,04,14,21,11.20
2010,02,04,14,22,11.20
2010,02,04,14,23,11.20
2010,02,04,14,24,11.30
2010,02,04,14,25,11.30
2010,02,04,14,26,11.40
2010,02,04,14,27,11.40
2010,02,04,14,28,11.40
2010,02,04,14,29,11.40
2010,02,04,14,30,11.40
2010,02,04,14,31,11.40
2010,02,04,14,32,11.40
2010,02,04,14,33,11.40
2010,02,04,14,34,11.60
2010,02,04,14,35,11.60
2010,02,04,14,36,11.60
2010,02,04,14,37,11.60
2010,02,04,14,38,11.60
2010,02,04,14,39,11.60
2010,02,04,14,40,11.60
2010,02,04,14,41,11.60
2010,02,04,14,42,11.60
2010,02,04,14,43,11.60
2010,02,04,14,44,11.60
2010,02,04,14,45,11.60
2010,02,04,14,46,11.70
2010,02,04,14,47,11.70
2010,02,04,14,48,11.80
2010,02,04,14,49,11.80
2010,02,04,14,50,11.80
2010,02,04,14,51,11.80
2010,02,04,14,52,11.80
2010,02,04,14,53,11.80
2010,02,04,14,54,11.80
2010,02,04,14,55,11.70
2010,02,04,14,56,11.60
2010,02,04,14,57,11.60
2010,02,04,14,58,11.60
2010,02,04,14,59,11.60
2010,02,04,15,00,11.60
2010,02,04,15,01,11.60
2010,02,04,15,02,11.50
2010,02,04,15,03,11.40
2010,02,04,15,04,11.30
2010,02,04,15,05,11.20
2010,02,04,15,06,11.20
2010,02,04,15,07,11.10
2010,02,04,15,08,11.10
2010,02,04,15,09,11.10
2010,02,04,15,10,11.10
2010,02,04,15,11,10.90
2010,02,04,15,12,10.90
2010,02,04,15,13,10.90
2010,02,04,15,14,10.90
2010,02,04,15,15,10.90
2010,02,04,15,16,10.90
2010,02,04,15,17,10.90
2010,02,04,15,18,10.90
2010,02,04,15,19,10.90
2010,02,04,15,20,10.90
2010,02,04,15,21,10.90
2010,02,04,15,22,10.90
2010,02,04,15,23,10.90
2010,02,04,15,24,10.90
2010,02,04,15,25,10.90
2010,02,04,15,26,10.90
2010,02,04,15,27,10.90
2010,02,04,15,28,10.90
2010,02,04,15,29,10.90
2010,02,04,15,30,10.90
2010,02,04,15,31,10.90
2010,02,04,15,32,10.90
2010,02,04,15,33,10.80
2010,02,04,15,34,10.80
2010,02,04,15,35,10.80
2010,02,04,15,36,10.80
2010,02,04,15,37,10.80
2010,02,04,15,38,10.70
2010,02,04,15,39,10.70
2010,02,04,15,40,10.70
2010,02,04,15,41,10.60
2010,02,04,15,42,10.60
2010,02,04,15,43,10.60
2010,02,04,15,44,10.60
2010,02,04,15,45,10.50
2010,02,04,15,46,10.40
2010,02,04,15,47,10.40
2010,02,04,15,48,10.40
2010,02,04,15,49,10.30
2010,02,04,15,50,10.30
2010,02,04,15,51,10.20
2010,02,04,15,52,10.20
2010,02,04,15,53,10.10
2010,02,04,15,54,10.10
2010,02,04,15,55,10.10
2010,02,04,15,56,10.00
2010,02,04,15,57,9.90
2010,02,04,15,58,9.90
2010,02,04,15,59,9.90
2010,02,04,16,00,9.90
2010,02,04,16,01,9.90
2010,02,04,16,02,9.90
2010,02,04,16,03,9.90
2010,02,04,16,04,9.90
2010,02,04,16,05,9.90
2010,02,04,16,06,9.90
2010,02,04,16,07,9.80
2010,02,04,16,08,9.80
2010,02,04,16,09,9.80
2010,02,04,16,10,9.70
2010,02,04,16,11,9.70
2010,02,04,16,12,9.70
2010,02,04,16,13,9.70
2010,02,04,16,14,9.70
2010,02,04,16,15,9.70
2010,02,04,16,16,9.70
2010,02,04,16,17,9.60
2010,02,04,16,18,9.60
2010,02,04,16,19,9.60
2010,02,04,16,20,9.60
2010,02,04,16,21,9.60
2010,02,04,16,22,9.60
2010,02,04,16,23,9.60
2010,02,04,16,24,9.60
2010,02,04,16,25,9.60
2010,02,04,16,26,9.60
2010,02,04,16,27,9.60
2010,02,04,16,28,9.50
2010,02,04,16,29,9.50
2010,02,04,16,30,9.50
2010,02,04,16,31,9.50
2010,02,04,16,32,9.50
2010,02,04,16,33,9.50
2010,02,04,16,34,9.50
2010,02,04,16,35,9.50
2010,02,04,16,36,9.40
2010,02,04,16,37,9.40
2010,02,04,16,38,9.40
2010,02,04,16,39,9.40
2010,02,04,16,40,9.40
2010,02,04,16,41,9.30
2010,02,04,16,42,9.30
2010,02,04,16,43,9.30
2010,02,04,16,44,9.30
2010,02,04,16,45,9.30
2010,02,04,16,46,9.30
2010,02,04,16,47,9.30
2010,02,04,16,48,9.30
2010,02,04,16,49,9.40
2010,02,04,16,50,9.40
2010,02,04,16,51,9.40
2010,02,04,16,52,9.40
2010,02,04,16,53,9.40
2010,02,04,16,54,9.30
2010,02,04,16,55,9.30
2010,02,04,16,56,9.20
2010,02,04,16,57,9.20
2010,02,04,16,58,9.20
2010,02,04,16,59,9.20
2010,02,04,17,00,9.20
2010,02,04,17,01,9.20
2010,02,04,17,02,9.20
2010,02,04,17,03,9.20
2010,02,04,17,04,9.30
2010,02,04,17,05,9.30
2010,02,04,17,06,9.40
2010,02,04,17,07,9.40
2010,02,04,17,08,9.50
2010,02,04,17,09,9.50
2010,02,04,17,10,9.50
2010,02,04,17,11,9.50
2010,02,04,17,12,9.40
2010,02,04,17,13,9.30
2010,02,04,17,14,9.30
2010,02,04,17,15,9.20
2010,02,04,17,16,9.10
2010,02,04,17,17,9.00
2010,02,04,17,18,9.00
2010,02,04,17,19,9.00
2010,02,04,17,20,9.00
2010,02,04,17,21,9.00
2010,02,04,17,22,9.00
2010,02,04,17,23,9.10
2010,02,04,17,24,9.10
2010,02,04,17,25,9.00
2010,02,04,17,26,9.00
2010,02,04,17,27,9.00
2010,02,04,17,28,9.00
2010,02,04,17,29,9.00
2010,02,04,17,30,9.00
2010,02,04,17,31,9.00
2010,02,04,17,32,9.00
2010,02,04,17,33,9.00
2010,02,04,17,34,9.00
2010,02,04,17,35,9.00
2010,02,04,17,36,9.00
2010,02,04,17,37,9.00
2010,02,04,17,38,9.00
2010,02,04,17,39,9.00
2010,02,04,17,40,9.10
2010,02,04,17,41,9.10
2010,02,04,17,42,9.10
2010,02,04,17,43,9.20
2010,02,04,17,44,9.10
2010,02,04,17,45,9.10
2010,02,04,17,46,9.10
2010,02,04,17,47,9.00
2010,02,04,17,48,9.00
2010,02,04,17,49,8.90
2010,02,04,17,50,8.90
2010,02,04,17,51,9.00
2010,02,04,17,52,9.00
2010,02,04,17,53,9.00
2010,02,04,17,54,9.00
2010,02,04,17,55,9.00